Regional Weather Roundup
Issued by NWS

Home | Current Version | Previous Version | Graphics & Text | Print | Product List | Glossary On
Versions: 1 2 3 4 5 6 7 8 9 10 11 12 13 14 15 16 17 18 19 20 21 22 23 24 25 26 27 28 29 30 31 32 33 34 35 36 37 38 39 40 41 42 43 44 45 46 47 48 49 50
000
ASUS43 KLMK 301202
RWRKY
KENTUCKY REGIONAL WEATHER ROUNDUP
NATIONAL WEATHER SERVICE LOUISVILLE KY
700 AM EST FRI JAN 30 2015

NOTE "FAIR" INDICATES FEW OR NO CLOUDS BELOW 12,000 FEET
WITH NO SIGNIFICANT WEATHER AND/OR OBSTRUCTIONS TO VISIBILITY.

KYZ001>023-026-027-061>063-070>075-301300-
WESTERN AND SOUTH CENTRAL KENTUCKY

CITY           SKY/WX    TMP DP  RH WIND       PRES   REMARKS
PADUCAH        CLOUDY    35  24  64 N14       30.46R WCI  26
HENDERSON      CLOUDY    34  23  64 NW7       30.45R WCI  28
OWENSBORO      CLOUDY    34  24  67 N10       30.43R WCI  26
HOPKINSVILLE   CLOUDY    34  23  65 NW10G20   30.44R WCI  26
BOWLING GREEN  CLOUDY    35  25  66 NW8       30.41R WCI  29
GLASGOW        NOT AVBL
$$

KYZ024-025-028>034-038-045-046-053-301300-
NORTH CENTRAL KENTUCKY

CITY           SKY/WX    TMP DP  RH WIND       PRES   REMARKS
LOUISVILLE/SDF CLOUDY    36  25  64 NW12      30.37R WCI  28
LOUISVILLE/LOU CLOUDY    35  23  61 NW10      30.37R WCI  27
FORT KNOX      MOCLDY    33  25  74 W10       30.36R WCI  24
$$

KYZ035>037-039>044-047>052-055>060-089>105-301300-
NORTHEAST KENTUCKY

CITY           SKY/WX    TMP DP  RH WIND       PRES   REMARKS
LEXINGTON      CLOUDY    32  26  78 NW9       30.32R WCI  24
COVINGTON      FLURRIES  31  25  78 N22G31    30.31R WCI  18
FRANKFORT      CLOUDY    33  21  61 NW7       30.32R WCI  27
$$

KYZ054-064>069-076>088-106>120-301300-
SOUTHEAST KENTUCKY

CITY           SKY/WX    TMP DP  RH WIND       PRES   REMARKS
JACKSON        CLOUDY    31  26  82 W8        30.26R WCI  23
LONDON         LGT RAIN  33  26  75 NW9       30.31R WCI  25
SOMERSET       NOT AVBL
MIDDLESBORO    NOT AVBL
MONTICELLO     FLURRIES  33  30  89 NW12      30.37R WCI  24
$$



USA.gov is the U.S. government's official web portal to all federal, state and local government web resources and services.